[[{"header":{"parameterUnit":"m.s-1","parameterCategory":2,"la1":30.2991,"la2":30.254,"lo1":-89.0895,"lo2":-89.0444,"dy":0.0017,"dx":0.0017,"nx":28,"ny":28,"refTime":"2024-02-22T09:00:00:Z","depth":"0","parameterNumber":2,"parameterNumberName":"U-component_of_CURRENTS"},"data":[0,0,0,0,0,0,0,0,0,0,0,0,0,0,0,0,0,0,0,0,0,0,0,0,0,0,0,0,0,0,0,0,0,0,0,0,0,0,0,0,0,0,0,0,0,0,0,0,0,0,0,0,0,0,0,0,0,0,0.2749,0.2749,0,0.2729,0.2728,0.2728,0.2708,0.2708,0.2709,0.2709,0.2681,0.268,0.2679,0,0,0,0,0,0,0,0,0,0,0,0,0,0.2776,0.2775,0.2749,0.2749,0.2749,0.2729,0.2728,0.2727,0.2708,0.2708,0.2709,0.2709,0.2681,0.268,0.2679,0,0,0,0,0,0,0,0,0,0,0,0,0,0.2757,0.2775,0.2749,0.274,0.2739,0.2729,0.2728,0.2727,0.2708,0.2708,0.2709,0.2709,0.2681,0.268,0.2679,0.267,0,0,0.2675,0.2675,0,0,0,0,0,0,0,0,0.2758,0.2756,0.2741,0.274,0.274,0.2724,0.2727,0.2709,0.2708,0.2717,0.2709,0.2709,0.2697,0.2694,0.2686,0.2669,0.2667,0.2675,0.2675,0.2674,0.2674,0,0,0,0,0,0,0,0.276,0.2757,0.2738,0.2741,0.274,0.2738,0.2735,0.2723,0.2704,0.2716,0.2715,0.2718,0.2696,0.2687,0.2685,0.2667,0.2675,0.2674,0.2674,0.2673,0.2694,0.2695,0,0,0,0,0,0,0.2768,0.2758,0.2739,0.2738,0.2753,0.2738,0.2734,0.2726,0.2704,0.2702,0.2718,0.2717,0.2689,0.2686,0.2684,0.2723,0.2674,0.2673,0.2672,0.2692,0.2694,0.2695,0,0,0,0,0,0,0.2769,0.2766,0.2739,0.2751,0.2747,0.2737,0.2728,0.2726,0.2722,0.2706,0.2703,0.2718,0.2689,0.2686,0.2685,0.272,0.2672,0.2671,0.2691,0.2693,0.2695,0.277,0,0,0,0,0,0,0.2769,0.2766,0.276,0.2751,0.2747,0.2737,0.2729,0.2726,0.2725,0.2724,0.2705,0.2702,0.2689,0.2687,0.2684,0.2718,0.267,0.2689,0.2692,0.2694,0.2766,0.2774,0.2781,0,0,0,0,0,0.277,0.276,0.276,0.2758,0.274,0.2737,0.2735,0.2726,0.2725,0.2723,0.2717,0.2703,0.27,0.2686,0.2682,0.2717,0.2688,0.2691,0.2694,0.2762,0.2772,0.2781,0,0,0,0,0,0,0.2769,0.2758,0.2757,0.2744,0.2745,0.2735,0.273,0.2731,0.2723,0.2722,0.2709,0.2706,0.2724,0.2705,0.269,0.2731,0.2696,0.2698,0.2749,0.2759,0.2766,0.2775,0.2669,0,0,0,0,0,0.2767,0.2754,0.2753,0.2743,0.2744,0.274,0.2737,0.2736,0.2731,0.2727,0.2717,0.2716,0.2732,0.2731,0.273,0.2741,0.2773,0.2764,0.2772,0.2779,0.2784,0.2872,0.2889,0.2705,0.2705,0.2705,0,0,0.2765,0.2757,0.275,0.2742,0.2738,0.2743,0.2737,0.2736,0.2748,0.2726,0.2731,0.2738,0.2741,0.2763,0.277,0.2751,0.2852,0.2782,0.2788,0.279,0.2877,0.2895,0.2911,0.2707,0.2706,0.2706,0,0,0.2754,0.2747,0.2735,0.2738,0.2739,0.2743,0.2748,0.2745,0.2751,0.2762,0.2765,0.2795,0.2787,0.2813,0.2825,0.2872,0.2891,0.287,0.2915,0.3001,0.3017,0.3032,0.3118,0.3139,0.2873,0.2873,0.2873,0,0.276,0.2737,0.2734,0.2731,0.2739,0.2748,0.2753,0.2764,0.2764,0.279,0.2771,0.2827,0.2821,0.289,0.2904,0.2893,0.2941,0.2881,0.3014,0.3029,0.3043,0.3126,0.3149,0.2877,0.2876,0.2876,0.2876,0,0.274,0.2731,0.2727,0.2728,0.2741,0.2743,0.2769,0.2789,0.2804,0.2828,0.2891,0.2898,0.2941,0.2948,0.2936,0.3036,0.304,0.3018,0.2995,0.3066,0.3149,0.3172,0.2882,0.2881,0.288,0.2879,0,0,0.2742,0.2717,0.2718,0.2723,0.274,0.2753,0.2792,0.284,0.2895,0.291,0.299,0.3018,0.3043,0.3057,0.3065,0.3124,0.3264,0.311,0.3112,0.3203,0.3469,0.3324,0.3335,0.3271,0.3275,0.3278,0.3496,0,0.2733,0.2714,0.2715,0.273,0.2732,0.2771,0.2815,0.2871,0.2924,0.3004,0.3055,0.3122,0.3081,0.3121,0.318,0.3245,0.3324,0.3208,0.3378,0.3383,0.3252,0.3355,0.3107,0.3267,0.3518,0.3522,0.3524,0,0.2716,0.271,0.2704,0.274,0.2751,0.2775,0.2874,0.2917,0.3039,0.3089,0.3177,0.322,0.3324,0.3274,0.3439,0.337,0.3428,0.3468,0.3478,0.3327,0.3279,0.323,0.3298,0.3161,0.3559,0.3557,0.3554,0,0.2709,0.2711,0.2704,0.2711,0.2755,0.279,0.2835,0.2946,0.3018,0.3159,0.3242,0.3354,0.3438,0.3521,0.3587,0.3539,0.3768,0.3717,0.3651,0.3643,0.3454,0.342,0.3408,0.3852,0.3852,0.3851,0.3851,0,0.2691,0.2697,0.27,0.2701,0.2754,0.279,0.2883,0.2956,0.3087,0.3196,0.3287,0.3395,0.3504,0.363,0.3667,0.3731,0.3846,0.3685,0.3694,0.3471,0.3438,0.3322,0.3285,0.386,0.3858,0.3856,0.3855,0,0.2679,0.2667,0.2682,0.272,0.2743,0.279,0.2903,0.299,0.31,0.3253,0.3306,0.3481,0.362,0.3717,0.3878,0.3831,0.3767,0.3901,0.3623,0.3591,0.3313,0.3289,0.3224,0.3139,0.3856,0.3853,0.3852,0,0.2662,0.2659,0.2696,0.2731,0.2749,0.2821,0.2893,0.2996,0.3089,0.3292,0.3375,0.3551,0.3639,0.3809,0.3776,0.3829,0.3731,0.3625,0.3455,0.328,0.3265,0.316,0.3088,0.327,0.3263,0.3258,0.3254,0,0.2672,0.2682,0.2706,0.276,0.2822,0.2887,0.298,0.3047,0.3183,0.3289,0.344,0.3513,0.3616,0.3519,0.3546,0.3543,0.3368,0.3511,0.3418,0.2872,0.2675,0.2601,0.3162,0.3206,0.3211,0.3214,0.3217,0.3219,0.2707,0.2731,0.2764,0.2813,0.2878,0.2942,0.2965,0.3061,0.3163,0.3239,0.338,0.3362,0.3282,0.3245,0.3232,0.2968,0.3058,0.2797,0.2817,0.2753,0.2538,0.2978,0.2955,0.2958,0.2961,0.2963,0.2966,0,0.2755,0.2779,0.2825,0.287,0.2901,0.2937,0.3018,0.2992,0.3039,0.3086,0.313,0.2951,0.2783,0.2693,0.2434,0.2276,0.2201,0.2201,0.2005,0.2,0.2463,0.2293,0.2015,0.2015,0.2015,0.2015,0.2015,0.2015,0.2796,0.2838,0.2837,0.2871,0.2888,0.288,0.2889,0.2843,0.2821,0.2678,0.2511,0.2445,0.231,0.2062,0.1802,0.1769,0.165,0.1506,0.1625,0.1926,0.1982,0.2036,0.1865,0.1502,0.1502,0.1,0.0996,0.0993]},{"header":{"parameterUnit":"m.s-1","parameterCategory":2,"la1":30.2991,"la2":30.254,"lo1":-89.0895,"lo2":-89.0444,"dy":0.0017,"dx":0.0017,"nx":28,"ny":28,"refTime":"2024-02-22T09:00:00:Z","depth":"0","parameterNumber":3,"parameterNumberName":"V-component_of_CURRENTS"},"data":[0,0,0,0,0,0,0,0,0,0,0,0,0,0,0,0,0,0,0,0,0,0,0,0,0,0,0,0,0,0,0,0,0,0,0,0,0,0,0,0,0,0,0,0,0,0,0,0,0,0,0,0,0,0,0,0,0,0,0.027,0.027,0,0.0229,0.0229,0.0228,0.0199,0.0198,0.0198,0.0198,0.0165,0.0164,0.0163,0,0,0,0,0,0,0,0,0,0,0,0,0,0.0291,0.0291,0.027,0.0269,0.0269,0.023,0.0229,0.0228,0.0199,0.0198,0.0198,0.0198,0.0165,0.0164,0.0163,0,0,0,0,0,0,0,0,0,0,0,0,0,0.0268,0.0291,0.027,0.025,0.0248,0.023,0.0229,0.0228,0.0199,0.0198,0.0198,0.0198,0.0165,0.0164,0.0163,0.0161,0,0,0.016,0.0159,0,0,0,0,0,0,0,0,0.027,0.0267,0.0254,0.0252,0.0249,0.022,0.0224,0.0206,0.0199,0.0216,0.0198,0.0198,0.0185,0.0182,0.0173,0.0159,0.0158,0.016,0.0159,0.0158,0.0158,0,0,0,0,0,0,0,0.0271,0.0269,0.0253,0.0253,0.0251,0.0233,0.023,0.022,0.0202,0.0215,0.0213,0.021,0.0183,0.0174,0.0172,0.0157,0.016,0.0159,0.0158,0.0157,0.0146,0.0147,0,0,0,0,0,0,0.028,0.027,0.0254,0.0252,0.026,0.0233,0.023,0.0229,0.0201,0.0197,0.0211,0.0209,0.0176,0.0174,0.0171,0.0183,0.0158,0.0157,0.0157,0.0146,0.0146,0.0147,0,0,0,0,0,0,0.0281,0.0279,0.0256,0.0261,0.0257,0.0234,0.0233,0.0228,0.0222,0.0198,0.0194,0.021,0.0176,0.0173,0.0167,0.0181,0.0157,0.0156,0.0145,0.0146,0.0146,0.0197,0,0,0,0,0,0,0.0282,0.028,0.0282,0.0262,0.0257,0.0253,0.0233,0.0227,0.0221,0.0219,0.0197,0.0193,0.0176,0.0169,0.0166,0.0179,0.0155,0.0145,0.0146,0.0146,0.0195,0.0199,0.0203,0,0,0,0,0,0.0283,0.0291,0.0283,0.0281,0.0261,0.0254,0.025,0.0231,0.0222,0.0224,0.0207,0.0194,0.0171,0.0168,0.0165,0.0178,0.0145,0.0145,0.0146,0.0193,0.0199,0.0203,0,0,0,0,0,0,0.0301,0.0289,0.0279,0.0283,0.0272,0.0249,0.025,0.0237,0.0224,0.0223,0.0198,0.0194,0.0192,0.0178,0.0175,0.0176,0.0156,0.0156,0.0193,0.0198,0.0202,0.0232,0.0154,0,0,0,0,0,0.0307,0.0311,0.0294,0.0297,0.0294,0.0272,0.0267,0.0256,0.0241,0.0235,0.0218,0.0202,0.0192,0.019,0.0175,0.0179,0.0186,0.0184,0.0189,0.0192,0.0214,0.0218,0.0225,0.0149,0.0149,0.0149,0,0,0.0314,0.0308,0.031,0.0302,0.029,0.0295,0.0268,0.0266,0.0274,0.0235,0.0239,0.0215,0.0195,0.0195,0.0194,0.0187,0.0221,0.0193,0.0197,0.0217,0.022,0.0227,0.0234,0.015,0.015,0.015,0,0,0.0336,0.0327,0.0338,0.0335,0.0326,0.0315,0.0318,0.0299,0.0295,0.0294,0.0267,0.0255,0.0239,0.0228,0.0221,0.024,0.0238,0.0233,0.0283,0.0286,0.0293,0.0299,0.0337,0.0346,0.0239,0.0239,0.0239,0,0.0345,0.0359,0.0341,0.0353,0.0358,0.0328,0.0346,0.0338,0.032,0.0328,0.0305,0.0287,0.0258,0.0272,0.0273,0.0252,0.0266,0.0267,0.0294,0.0299,0.0305,0.0342,0.0351,0.0241,0.0241,0.0241,0.0241,0,0.0377,0.0388,0.0396,0.0404,0.0406,0.0416,0.0406,0.0409,0.0397,0.0389,0.0395,0.0356,0.0352,0.0332,0.0308,0.0332,0.0336,0.0295,0.0285,0.0316,0.0353,0.0361,0.0245,0.0244,0.0243,0.0243,0,0,0.04,0.0416,0.0421,0.044,0.0437,0.0449,0.0464,0.0478,0.0507,0.0476,0.0515,0.0471,0.0452,0.0443,0.0407,0.0404,0.0442,0.0372,0.0371,0.042,0.0485,0.0458,0.0465,0.0406,0.0407,0.0408,0.0503,0,0.0432,0.0475,0.0471,0.0515,0.0537,0.0527,0.0554,0.0562,0.0561,0.0589,0.0554,0.057,0.0495,0.0503,0.0484,0.0452,0.0465,0.0423,0.0441,0.0443,0.0422,0.0473,0.0469,0.055,0.0511,0.0513,0.0514,0,0.0466,0.0495,0.0546,0.059,0.06,0.0623,0.0673,0.0692,0.0713,0.0718,0.0717,0.0694,0.0691,0.0621,0.0599,0.0577,0.0546,0.0516,0.0518,0.0484,0.0432,0.0508,0.0567,0.0486,0.0527,0.0526,0.0525,0,0.0506,0.0548,0.0598,0.0611,0.0652,0.0683,0.0707,0.0734,0.0777,0.081,0.0856,0.0824,0.0851,0.0781,0.0713,0.0663,0.0703,0.0621,0.0579,0.0578,0.0575,0.0571,0.0565,0.0625,0.0625,0.0625,0.0625,0,0.0546,0.0587,0.0625,0.0656,0.0733,0.0739,0.082,0.084,0.0894,0.0978,0.0932,0.101,0.0894,0.0893,0.0787,0.0731,0.0764,0.0618,0.0603,0.0593,0.059,0.0517,0.0462,0.0628,0.0628,0.0627,0.0626,0,0.0582,0.0603,0.0669,0.0728,0.0754,0.0811,0.0895,0.0956,0.1001,0.1116,0.1142,0.1177,0.1186,0.1076,0.1005,0.0862,0.0743,0.0759,0.0774,0.0756,0.0579,0.0527,0.0548,0.0515,0.0711,0.0711,0.0711,0,0.0605,0.0643,0.0727,0.0778,0.081,0.0891,0.0955,0.1008,0.1085,0.1234,0.1309,0.1369,0.1441,0.1328,0.1103,0.0942,0.083,0.0798,0.0672,0.0599,0.053,0.0508,0.0477,0.0708,0.0708,0.0707,0.0707,0,0.0658,0.0688,0.0744,0.0844,0.0921,0.1014,0.1111,0.1193,0.129,0.1419,0.1601,0.1679,0.1592,0.144,0.1195,0.1049,0.0734,0.0788,0.0708,0.0534,0.0518,0.0469,0.0639,0.0707,0.0707,0.0707,0.0707,0.0707,0.0701,0.0749,0.0822,0.0916,0.1008,0.1133,0.1228,0.1359,0.153,0.1741,0.1806,0.1949,0.1693,0.1368,0.1175,0.0769,0.0772,0.0607,0.0561,0.0555,0.0485,0.0666,0.0699,0.0699,0.0699,0.0699,0.0699,0,0.0749,0.0804,0.0891,0.1008,0.1112,0.1155,0.1331,0.1447,0.1674,0.1878,0.2053,0.1982,0.1708,0.1354,0.0819,0.0574,0.0489,0.0444,0.0409,0.0391,0.0556,0.0513,0.0511,0.0511,0.0511,0.0511,0.0511,0.0511,0.0779,0.086,0.0899,0.107,0.116,0.1316,0.1426,0.1622,0.1789,0.2036,0.2101,0.2116,0.1798,0.1029,0.053,0.0417,0.0274,0.0236,0.0181,0.027,0.0282,0.0293,0.0239,0.018,0.018,0.0043,0.0041,0.004]}],[{"header":{"parameterUnit":"m.s-1","parameterCategory":2,"la1":30.2991,"la2":30.254,"lo1":-89.0895,"lo2":-89.0444,"dy":0.0017,"dx":0.0017,"nx":28,"ny":28,"refTime":"2024-02-22T09:00:00:Z","depth":"2","parameterNumber":2,"parameterNumberName":"U-component_of_CURRENTS"},"data":[0,0,0,0,0,0,0,0,0,0,0,0,0,0,0,0,0,0,0,0,0,0,0,0,0,0,0,0,0,0,0,0,0,0,0,0,0,0,0,0,0,0,0,0,0,0,0,0,0,0,0,0,0,0,0,0,0,0,0.2155,0.2155,0,0.2163,0.2163,0.2163,0.2168,0.2168,0.2168,0.2168,0.2166,0.2166,0.2166,0,0,0,0,0,0,0,0,0,0,0,0,0,0.2153,0.2152,0.2155,0.2155,0.2156,0.2163,0.2163,0.2163,0.2168,0.2168,0.2168,0.2168,0.2166,0.2166,0.2166,0,0,0,0,0,0,0,0,0,0,0,0,0,0.2155,0.2152,0.2155,0.216,0.216,0.2163,0.2163,0.2163,0.2168,0.2168,0.2168,0.2168,0.2166,0.2166,0.2166,0.216,0,0,0.2165,0.2165,0,0,0,0,0,0,0,0,0.2155,0.2155,0.2159,0.2159,0.216,0.2166,0.2162,0.2162,0.2168,0.2163,0.2168,0.2168,0.2166,0.2166,0.2165,0.216,0.2159,0.2165,0.2165,0.2164,0.2164,0,0,0,0,0,0,0,0.2155,0.2155,0.2157,0.2159,0.216,0.2165,0.2165,0.2162,0.2162,0.2164,0.2164,0.2168,0.2166,0.2165,0.2165,0.2159,0.2165,0.2164,0.2164,0.2164,0.2206,0.2207,0,0,0,0,0,0,0.2156,0.2154,0.2157,0.2157,0.216,0.2165,0.2165,0.2163,0.2162,0.2163,0.2167,0.2168,0.2165,0.2165,0.2165,0.2207,0.2164,0.2164,0.2164,0.2205,0.2206,0.2208,0,0,0,0,0,0,0.2156,0.2156,0.2156,0.2158,0.2158,0.2164,0.2162,0.2163,0.2174,0.2165,0.2166,0.218,0.2166,0.2165,0.2176,0.2205,0.2164,0.2164,0.2203,0.2205,0.2207,0.2261,0,0,0,0,0,0,0.2155,0.2155,0.2158,0.2157,0.2158,0.2168,0.2162,0.2163,0.2176,0.2177,0.2176,0.2175,0.2166,0.2177,0.2176,0.2204,0.2164,0.2202,0.2204,0.2206,0.2257,0.2264,0.227,0,0,0,0,0,0.2155,0.2159,0.2158,0.2158,0.216,0.2169,0.217,0.2174,0.2176,0.2185,0.2187,0.2176,0.2192,0.2177,0.2176,0.2205,0.22,0.2203,0.2206,0.2255,0.2263,0.227,0,0,0,0,0,0,0.2157,0.216,0.2158,0.2162,0.2169,0.217,0.2178,0.2182,0.219,0.2192,0.2185,0.2184,0.2207,0.2198,0.2182,0.2226,0.2198,0.22,0.2235,0.2243,0.2249,0.2244,0.2163,0,0,0,0,0,0.2159,0.2162,0.2166,0.2169,0.2174,0.2179,0.2184,0.2188,0.2193,0.2198,0.2197,0.2202,0.2216,0.2222,0.2224,0.2243,0.2257,0.2264,0.227,0.2276,0.2272,0.2339,0.2351,0.2217,0.2217,0.2217,0,0,0.216,0.2162,0.2163,0.217,0.2175,0.2186,0.2183,0.2195,0.221,0.2195,0.2214,0.222,0.2225,0.2249,0.226,0.2247,0.2321,0.2279,0.2284,0.2277,0.2343,0.2356,0.2368,0.2219,0.2219,0.2218,0,0,0.2163,0.2166,0.2171,0.218,0.2192,0.2198,0.2206,0.2215,0.2225,0.2245,0.2244,0.2267,0.2279,0.2291,0.23,0.2342,0.2351,0.235,0.2381,0.2446,0.2458,0.2469,0.2503,0.2516,0.2357,0.2357,0.2357,0,0.2167,0.2168,0.2176,0.2186,0.2194,0.2207,0.2217,0.2233,0.2245,0.2261,0.2259,0.2302,0.2301,0.2344,0.2359,0.2357,0.2388,0.2351,0.2456,0.2466,0.2476,0.2508,0.2522,0.236,0.2359,0.2359,0.2359,0,0.2173,0.2178,0.2185,0.22,0.2213,0.2224,0.2246,0.2266,0.2284,0.2302,0.2348,0.2356,0.2387,0.2396,0.2388,0.2459,0.2456,0.2456,0.2437,0.2493,0.2523,0.2537,0.2364,0.2363,0.2362,0.2361,0,0,0.2165,0.2185,0.2186,0.2192,0.2219,0.2229,0.2265,0.2298,0.2332,0.236,0.2412,0.2436,0.2453,0.2463,0.2469,0.2516,0.2606,0.2518,0.252,0.2551,0.2744,0.2649,0.2654,0.2639,0.2642,0.2644,0.2737,0,0.2165,0.2179,0.2192,0.2211,0.2219,0.2247,0.2281,0.2319,0.2358,0.2415,0.2453,0.25,0.2479,0.2506,0.2554,0.2598,0.2644,0.258,0.2683,0.2685,0.2595,0.2667,0.2408,0.2461,0.275,0.2752,0.2753,0,0.2161,0.2172,0.2185,0.2214,0.2222,0.2244,0.2301,0.2335,0.2421,0.246,0.2522,0.2555,0.2627,0.2607,0.2714,0.2682,0.2714,0.2739,0.2744,0.2643,0.2615,0.2452,0.2474,0.2775,0.2774,0.2772,0.2771,0,0.214,0.2163,0.2171,0.218,0.2223,0.2245,0.2279,0.235,0.2396,0.2499,0.2551,0.2636,0.2701,0.276,0.2806,0.278,0.2926,0.2899,0.2838,0.2831,0.2619,0.2589,0.2978,0.2978,0.2978,0.2977,0.2977,0,0.2126,0.2133,0.2164,0.217,0.22,0.2236,0.229,0.2342,0.2437,0.2505,0.2576,0.264,0.2749,0.2834,0.2856,0.2892,0.2974,0.2852,0.2858,0.2629,0.2599,0.2872,0.2859,0.2981,0.298,0.2979,0.2979,0,0.2095,0.2116,0.2128,0.217,0.2189,0.2213,0.2296,0.2332,0.243,0.2527,0.2567,0.2692,0.2786,0.2865,0.2979,0.2951,0.2992,0.2981,0.2688,0.2657,0.2835,0.2824,0.2917,0.2914,0.2912,0.2911,0.2909,0,0.2076,0.2079,0.2118,0.2129,0.2148,0.2196,0.2226,0.2325,0.237,0.2537,0.2575,0.2711,0.2761,0.288,0.2865,0.2889,0.2972,0.2665,0.2551,0.2837,0.2834,0.2826,0.2817,0.2296,0.229,0.2285,0.2281,0,0.2042,0.2058,0.2072,0.2093,0.2119,0.2143,0.22,0.2236,0.2358,0.2428,0.2523,0.258,0.2682,0.258,0.2622,0.26,0.2635,0.2558,0.297,0.2344,0.2257,0.2253,0.2264,0.2235,0.2239,0.2243,0.2245,0.2247,0.2017,0.2019,0.2039,0.2044,0.2075,0.2073,0.2059,0.2112,0.2162,0.2228,0.2375,0.2374,0.24,0.2308,0.224,0.2193,0.2376,0.2258,0.2273,0.2293,0.2196,0.211,0.2041,0.2044,0.2047,0.2049,0.2052,0,0.1963,0.1975,0.1984,0.1987,0.1964,0.2006,0.202,0.1969,0.1956,0.2046,0.2093,0.1928,0.1846,0.1887,0.1719,0.1709,0.1681,0.1648,0.1579,0.1626,0.1668,0.1537,0.1208,0.1206,0.1204,0.1201,0,0,0.1944,0.1919,0.1912,0.1859,0.186,0.1795,0.1766,0.1703,0.1717,0.1664,0.1649,0.1794,0.1839,0.1512,0.1447,0.1297,0.1461,0.1247,0.1923,0.1891,0.1929,0.2018,0.187,0,0,0,0,0]},{"header":{"parameterUnit":"m.s-1","parameterCategory":2,"la1":30.2991,"la2":30.254,"lo1":-89.0895,"lo2":-89.0444,"dy":0.0017,"dx":0.0017,"nx":28,"ny":28,"refTime":"2024-02-22T09:00:00:Z","depth":"2","parameterNumber":3,"parameterNumberName":"V-component_of_CURRENTS"},"data":[0,0,0,0,0,0,0,0,0,0,0,0,0,0,0,0,0,0,0,0,0,0,0,0,0,0,0,0,0,0,0,0,0,0,0,0,0,0,0,0,0,0,0,0,0,0,0,0,0,0,0,0,0,0,0,0,0,0,0.0155,0.0154,0,0.0118,0.0118,0.0117,0.0092,0.0092,0.0092,0.0092,0.0062,0.0061,0.006,0,0,0,0,0,0,0,0,0,0,0,0,0,0.0174,0.0174,0.0155,0.0154,0.0154,0.0118,0.0118,0.0117,0.0092,0.0092,0.0092,0.0092,0.0062,0.0061,0.006,0,0,0,0,0,0,0,0,0,0,0,0,0,0.0154,0.0174,0.0155,0.0138,0.0136,0.0118,0.0118,0.0117,0.0092,0.0092,0.0092,0.0092,0.0062,0.0061,0.006,0.0058,0,0,0.0057,0.0057,0,0,0,0,0,0,0,0,0.0155,0.0153,0.0141,0.0139,0.0137,0.011,0.0113,0.0098,0.0092,0.0108,0.0092,0.0092,0.0079,0.0077,0.0069,0.0056,0.0055,0.0057,0.0056,0.0056,0.0056,0,0,0,0,0,0,0,0.0156,0.0154,0.014,0.014,0.0138,0.0122,0.0119,0.011,0.0095,0.0107,0.0105,0.0102,0.0078,0.007,0.0068,0.0054,0.0057,0.0056,0.0055,0.0055,0.0046,0.0046,0,0,0,0,0,0,0.0164,0.0156,0.0141,0.0139,0.0146,0.0122,0.0119,0.0118,0.0095,0.0091,0.0102,0.0101,0.0072,0.007,0.0067,0.0077,0.0056,0.0055,0.0054,0.0046,0.0046,0.0047,0,0,0,0,0,0,0.0164,0.0163,0.0142,0.0147,0.0143,0.0122,0.0122,0.0118,0.0113,0.0091,0.0087,0.0102,0.0072,0.0069,0.0064,0.0075,0.0054,0.0053,0.0045,0.0046,0.0046,0.0087,0,0,0,0,0,0,0.0165,0.0163,0.0166,0.0147,0.0143,0.0139,0.0122,0.0117,0.0111,0.0109,0.009,0.0086,0.0071,0.0066,0.0063,0.0073,0.0053,0.0045,0.0045,0.0046,0.0085,0.0089,0.0092,0,0,0,0,0,0.0166,0.0173,0.0167,0.0165,0.0147,0.014,0.0136,0.012,0.0112,0.0114,0.01,0.0087,0.0069,0.0066,0.0062,0.0072,0.0044,0.0045,0.0046,0.0084,0.0088,0.0092,0,0,0,0,0,0,0.0181,0.0171,0.0163,0.0166,0.0156,0.0136,0.0135,0.0124,0.0114,0.0113,0.0092,0.0088,0.0087,0.0074,0.0072,0.0071,0.0055,0.0055,0.0084,0.0088,0.0092,0.0109,0.0052,0,0,0,0,0,0.0186,0.0191,0.0176,0.0179,0.0175,0.0156,0.0151,0.0141,0.0129,0.0123,0.0109,0.0095,0.0088,0.0084,0.0073,0.0075,0.0064,0.0078,0.0082,0.0085,0.0096,0.0088,0.0093,0.0049,0.0049,0.0049,0,0,0.0192,0.0188,0.019,0.0182,0.0172,0.0176,0.0152,0.0149,0.0156,0.0123,0.0127,0.0107,0.009,0.009,0.0089,0.0082,0.009,0.0086,0.0089,0.0099,0.009,0.0094,0.0098,0.005,0.005,0.005,0,0,0.0211,0.0204,0.0214,0.0211,0.0202,0.0193,0.0195,0.0178,0.0174,0.0174,0.0151,0.0139,0.0128,0.0115,0.0109,0.0126,0.0107,0.0122,0.0155,0.0147,0.0151,0.0154,0.014,0.0142,0.0125,0.0125,0.0125,0,0.0217,0.023,0.0215,0.0225,0.0229,0.0204,0.0218,0.0212,0.0196,0.02,0.0183,0.0164,0.0142,0.0147,0.0148,0.0134,0.0127,0.0141,0.0153,0.0155,0.0158,0.0143,0.0144,0.0127,0.0127,0.0127,0.0127,0,0.0243,0.0253,0.026,0.0267,0.0269,0.0276,0.0268,0.0269,0.026,0.0252,0.0252,0.0219,0.0209,0.0196,0.0177,0.0185,0.0172,0.0157,0.0144,0.0165,0.0147,0.0148,0.013,0.013,0.0129,0.0128,0,0,0.0258,0.0275,0.0279,0.0295,0.0294,0.0302,0.0316,0.0324,0.0343,0.0318,0.034,0.0305,0.0283,0.0274,0.0243,0.0232,0.0229,0.0206,0.0205,0.0196,0.0212,0.0194,0.0192,0.0219,0.0219,0.022,0.0191,0,0.0283,0.0318,0.0318,0.0355,0.0371,0.0364,0.0385,0.039,0.0387,0.04,0.0366,0.0372,0.0315,0.0315,0.0291,0.0253,0.0234,0.0239,0.019,0.0189,0.0173,0.0193,0.0218,0.0194,0.0191,0.0191,0.0191,0,0.0308,0.0331,0.0373,0.041,0.0418,0.0438,0.0472,0.049,0.0497,0.0497,0.0485,0.0458,0.0437,0.0389,0.0327,0.0335,0.0277,0.0239,0.0237,0.0209,0.0172,0.0173,0.0195,0.0192,0.0192,0.0192,0.0191,0,0.0333,0.037,0.041,0.0421,0.0456,0.0481,0.0502,0.0519,0.0555,0.0563,0.0589,0.0543,0.054,0.0466,0.0372,0.0356,0.0307,0.0272,0.0199,0.0196,0.0203,0.02,0.0229,0.0229,0.0229,0.0229,0.0229,0,0.0361,0.0393,0.0429,0.0453,0.0513,0.0522,0.0588,0.0599,0.0639,0.0703,0.0645,0.0681,0.0562,0.0515,0.0412,0.0313,0.0333,0.0214,0.0193,0.0216,0.0215,0.0202,0.02,0.0228,0.0228,0.0228,0.0228,0,0.0382,0.0403,0.0453,0.0504,0.0528,0.0572,0.0653,0.0704,0.0729,0.0813,0.0826,0.0794,0.0734,0.0604,0.0489,0.0378,0.0278,0.0233,0.0264,0.0247,0.0158,0.0158,0.0151,0.015,0.0149,0.0149,0.0148,0,0.0394,0.0423,0.0495,0.054,0.0568,0.064,0.07,0.0747,0.0814,0.0893,0.0945,0.0907,0.0896,0.0705,0.0511,0.0329,0.029,0.0217,0.0181,0.0173,0.0153,0.0154,0.0154,0.0202,0.0202,0.0202,0.0202,0,0.0421,0.0447,0.0495,0.0588,0.0659,0.0748,0.084,0.0909,0.0989,0.1055,0.1138,0.1134,0.0961,0.0784,0.052,0.0391,0.0245,0.021,0.0211,0.0216,0.0218,0.0199,0.0199,0.0202,0.0202,0.0202,0.0202,0.0202,0.0445,0.0483,0.0554,0.0643,0.0733,0.0855,0.0939,0.1041,0.116,0.1265,0.1264,0.1252,0.1046,0.0707,0.0497,0.0258,0.0259,0.0161,0.0162,0.0163,0.0172,0.0173,0.015,0.015,0.015,0.0149,0.0149,0,0.0477,0.0529,0.0608,0.0723,0.0829,0.0873,0.1034,0.1117,0.1259,0.1333,0.1384,0.1181,0.0993,0.0752,0.0416,0.0211,0.0191,0.0131,0.016,0.0162,0.0163,0.0172,0.015,0.0149,0.0149,0.0148,0,0,0.0498,0.0575,0.0616,0.0785,0.0874,0.1022,0.1119,0.1231,0.1312,0.1369,0.1356,0.1322,0.1055,0.0804,0.0538,0.0352,0.0297,0.0303,0.0325,0.0394,0.0397,0.0203,0.0222,0,0,0,0,0]}],[{"header":{"parameterUnit":"m.s-1","parameterCategory":2,"la1":30.2991,"la2":30.254,"lo1":-89.0895,"lo2":-89.0444,"dy":0.0017,"dx":0.0017,"nx":28,"ny":28,"refTime":"2024-02-22T09:00:00:Z","depth":"4","parameterNumber":2,"parameterNumberName":"U-component_of_CURRENTS"},"data":[0,0,0,0,0,0,0,0,0,0,0,0,0,0,0,0,0,0,0,0,0,0,0,0,0,0,0,0,0,0,0,0,0,0,0,0,0,0,0,0,0,0,0,0,0,0,0,0,0,0,0,0,0,0,0,0,0,0,0.1324,0.1325,0,0.1366,0.1366,0.1366,0.1409,0.141,0.1411,0.1411,0.1464,0.1465,0.1465,0,0,0,0,0,0,0,0,0,0,0,0,0,0.1283,0.1283,0.1324,0.1325,0.1326,0.1366,0.1366,0.1367,0.1409,0.141,0.1411,0.1412,0.1464,0.1465,0.1466,0,0,0,0,0,0,0,0,0,0,0,0,0,0.1309,0.1283,0.1324,0.1353,0.1356,0.1366,0.1366,0.1367,0.1409,0.141,0.1411,0.1412,0.1463,0.1465,0.1466,0.1452,0,0,0.1469,0.147,0,0,0,0,0,0,0,0,0.1307,0.131,0.1348,0.1351,0.1354,0.1384,0.1371,0.1396,0.1409,0.1388,0.1411,0.1413,0.1438,0.1442,0.1445,0.1454,0.1457,0.1469,0.147,0.147,0.1471,0,0,0,0,0,0,0,0.1306,0.1309,0.134,0.1348,0.1352,0.1363,0.1368,0.1376,0.1406,0.139,0.1393,0.1399,0.144,0.1444,0.1447,0.1457,0.1469,0.147,0.1471,0.1471,0.1543,0.1545,0,0,0,0,0,0,0.1301,0.1307,0.1338,0.1341,0.1334,0.1363,0.1369,0.1373,0.1406,0.1412,0.1398,0.1401,0.1442,0.1446,0.1449,0.1517,0.147,0.1471,0.1472,0.1542,0.1544,0.1545,0,0,0,0,0,0,0.13,0.1304,0.1337,0.1326,0.1331,0.1363,0.1367,0.1373,0.1409,0.1412,0.1419,0.1432,0.1443,0.1447,0.1483,0.1517,0.1472,0.1473,0.1541,0.1543,0.1544,0.1601,0,0,0,0,0,0,0.1299,0.1303,0.132,0.1326,0.1332,0.1363,0.1367,0.1373,0.1409,0.1414,0.1443,0.1447,0.1444,0.1482,0.1484,0.1517,0.1474,0.1539,0.1542,0.1544,0.1598,0.1605,0.1611,0,0,0,0,0,0.1297,0.1312,0.132,0.1325,0.1348,0.1364,0.1369,0.1393,0.141,0.1429,0.1451,0.1448,0.1499,0.1483,0.1486,0.1521,0.1538,0.1541,0.1544,0.1595,0.1603,0.161,0,0,0,0,0,0,0.1304,0.1318,0.1327,0.1347,0.1364,0.1372,0.1396,0.141,0.1442,0.1456,0.146,0.1466,0.1511,0.1506,0.1489,0.1548,0.1519,0.1522,0.1557,0.1565,0.1571,0.1561,0.1475,0,0,0,0,0,0.1311,0.1328,0.134,0.1359,0.137,0.1389,0.1405,0.1421,0.1441,0.1458,0.1476,0.1497,0.1518,0.1535,0.1548,0.1578,0.1579,0.1602,0.1609,0.1614,0.1608,0.1649,0.1659,0.1554,0.1554,0.1554,0,0,0.1319,0.133,0.1341,0.1362,0.1379,0.1398,0.1402,0.1434,0.1457,0.1457,0.1504,0.1522,0.1531,0.1568,0.1587,0.1573,0.1646,0.1618,0.1623,0.1613,0.1653,0.1663,0.1673,0.1556,0.1556,0.1555,0,0,0.1333,0.1354,0.1371,0.1388,0.1418,0.1427,0.1443,0.1467,0.1492,0.1532,0.154,0.1576,0.161,0.1619,0.1629,0.1677,0.1679,0.1692,0.1718,0.1759,0.1768,0.1776,0.1795,0.1804,0.1695,0.1696,0.1696,0,0.1346,0.1362,0.138,0.14,0.1417,0.1443,0.1462,0.1487,0.1523,0.1544,0.1558,0.1618,0.1631,0.1667,0.1688,0.1692,0.1711,0.1689,0.1768,0.1776,0.1783,0.1801,0.181,0.1699,0.1698,0.1698,0.1698,0,0.1361,0.1386,0.14,0.143,0.1452,0.1476,0.1503,0.1537,0.1573,0.1596,0.1654,0.1674,0.171,0.1725,0.1724,0.178,0.1777,0.1773,0.1748,0.1797,0.1813,0.1821,0.1703,0.1702,0.1701,0.17,0,0,0.1352,0.1401,0.1408,0.1425,0.147,0.1483,0.153,0.1568,0.1603,0.1653,0.1701,0.1744,0.1767,0.1778,0.1788,0.182,0.1891,0.1824,0.1825,0.1842,0.1979,0.1837,0.1832,0.1913,0.1915,0.1916,0.1972,0,0.136,0.1396,0.142,0.1456,0.1474,0.1511,0.1547,0.1591,0.1639,0.1694,0.1734,0.1788,0.1785,0.1818,0.1851,0.1884,0.1916,0.1875,0.1929,0.193,0.1797,0.1838,0.1922,0.1978,0.198,0.1981,0.1982,0,0.1358,0.1383,0.1422,0.1463,0.1475,0.1507,0.1565,0.1603,0.1681,0.1722,0.1784,0.1826,0.1887,0.1882,0.1957,0.1939,0.1964,0.198,0.1983,0.183,0.1802,0.1918,0.1998,0.1996,0.1995,0.1994,0.1993,0,0.1325,0.1376,0.1407,0.1424,0.1481,0.1512,0.155,0.162,0.1657,0.1755,0.1803,0.1875,0.1929,0.1976,0.202,0.2007,0.2095,0.208,0.1968,0.1958,0.2046,0.2036,0.213,0.213,0.213,0.213,0.213,0,0.1303,0.1328,0.1401,0.1416,0.1449,0.1504,0.1553,0.1601,0.1686,0.1731,0.1823,0.1865,0.1962,0.2024,0.2047,0.2029,0.2123,0.1969,0.1963,0.2068,0.2061,0.2052,0.2042,0.2132,0.2132,0.2131,0.2131,0,0.1254,0.1307,0.1339,0.1411,0.1435,0.1463,0.1544,0.1572,0.1672,0.1739,0.178,0.1888,0.1958,0.2029,0.2107,0.2046,0.2055,0.2028,0.2136,0.2137,0.1882,0.1875,0.1893,0.1889,0.1885,0.1882,0.1879,0,0.1228,0.1247,0.1324,0.1338,0.1374,0.1429,0.1455,0.1552,0.1583,0.1729,0.1745,0.1864,0.1923,0.1913,0.1994,0.2019,0.1997,0.1978,0.1915,0.1865,0.1859,0.1858,0.1856,0.1873,0.1872,0.1871,0.187,0,0.1172,0.1216,0.1241,0.1277,0.1309,0.1331,0.1387,0.1401,0.1514,0.1627,0.167,0.1713,0.178,0.1824,0.1862,0.1876,0.1974,0.1937,0.1944,0.1885,0.1841,0.1838,0.184,0.1856,0.1858,0.1859,0.186,0,0.1129,0.1129,0.1173,0.1186,0.1222,0.1214,0.1257,0.1293,0.1341,0.1506,0.1518,0.1646,0.1762,0.1751,0.1788,0.1788,0.1751,0.1677,0.1697,0.1712,0.1625,0.1542,0.1458,0,0,0,0,0,0.1078,0.1062,0.1072,0.1071,0.1103,0.1127,0.1193,0.1244,0.1366,0.1353,0.1432,0.1491,0.1538,0.1599,0.1563,0.1698,0.1755,0.1645,0.1679,0.1782,0.1797,0.171,0,0,0,0,0,0,0.1038,0.105,0.1038,0.0975,0.0959,0.0978,0.1019,0.1103,0.1101,0.1242,0.1277,0.1386,0.1458,0.1551,0.1533,0.1551,0.1534,0.1727,0.1723,0.1773,0.1787,0.1799,0.1716,0,0,0,0,0]},{"header":{"parameterUnit":"m.s-1","parameterCategory":2,"la1":30.2991,"la2":30.254,"lo1":-89.0895,"lo2":-89.0444,"dy":0.0017,"dx":0.0017,"nx":28,"ny":28,"refTime":"2024-02-22T09:00:00:Z","depth":"4","parameterNumber":3,"parameterNumberName":"V-component_of_CURRENTS"},"data":[0,0,0,0,0,0,0,0,0,0,0,0,0,0,0,0,0,0,0,0,0,0,0,0,0,0,0,0,0,0,0,0,0,0,0,0,0,0,0,0,0,0,0,0,0,0,0,0,0,0,0,0,0,0,0,0,0,0,0.0133,0.0133,0,0.0111,0.011,0.011,0.0095,0.0095,0.0095,0.0095,0.0077,0.0077,0.0076,0,0,0,0,0,0,0,0,0,0,0,0,0,0.0144,0.0144,0.0133,0.0133,0.0133,0.0111,0.011,0.011,0.0095,0.0095,0.0095,0.0095,0.0077,0.0077,0.0076,0,0,0,0,0,0,0,0,0,0,0,0,0,0.0131,0.0144,0.0133,0.0123,0.0122,0.0111,0.011,0.011,0.0095,0.0095,0.0095,0.0095,0.0077,0.0077,0.0076,0.0073,0,0,0.0074,0.0074,0,0,0,0,0,0,0,0,0.0132,0.0131,0.0125,0.0124,0.0123,0.0106,0.0107,0.0098,0.0095,0.0105,0.0095,0.0095,0.0088,0.0086,0.0081,0.0072,0.0072,0.0074,0.0073,0.0073,0.0073,0,0,0,0,0,0,0,0.0133,0.0132,0.0124,0.0125,0.0123,0.0113,0.0111,0.0105,0.0097,0.0104,0.0103,0.0102,0.0087,0.0082,0.0081,0.0071,0.0074,0.0073,0.0073,0.0073,0.007,0.007,0,0,0,0,0,0,0.0138,0.0133,0.0125,0.0123,0.0128,0.0113,0.0111,0.0111,0.0097,0.0094,0.0102,0.0101,0.0083,0.0081,0.008,0.0091,0.0073,0.0073,0.0072,0.007,0.007,0.007,0,0,0,0,0,0,0.0138,0.0138,0.0125,0.0128,0.0126,0.0113,0.0113,0.0111,0.0109,0.0095,0.0092,0.0103,0.0083,0.0081,0.008,0.009,0.0072,0.0072,0.0069,0.007,0.007,0.0104,0,0,0,0,0,0,0.0139,0.0138,0.0141,0.0128,0.0126,0.0124,0.0113,0.011,0.0108,0.0107,0.0095,0.0093,0.0083,0.0082,0.008,0.0089,0.0071,0.0069,0.0069,0.007,0.0102,0.0106,0.0108,0,0,0,0,0,0.0139,0.0145,0.0142,0.0141,0.013,0.0125,0.0123,0.0113,0.0108,0.011,0.0103,0.0093,0.0084,0.0081,0.0079,0.0088,0.0068,0.0069,0.007,0.0101,0.0105,0.0108,0,0,0,0,0,0,0.015,0.0144,0.014,0.0143,0.0137,0.0123,0.0124,0.0117,0.0112,0.0112,0.0098,0.0095,0.0098,0.0088,0.0085,0.0089,0.0075,0.0075,0.0099,0.0103,0.0105,0.0118,0.0071,0,0,0,0,0,0.0154,0.0159,0.0149,0.0152,0.015,0.0138,0.0135,0.0129,0.0122,0.0119,0.011,0.0102,0.0099,0.0097,0.0091,0.0093,0.0077,0.0097,0.01,0.0102,0.0111,0.0096,0.0099,0.0073,0.0073,0.0073,0,0,0.0159,0.0157,0.0159,0.0155,0.0149,0.0153,0.0136,0.0135,0.0142,0.0118,0.0125,0.0112,0.0102,0.0105,0.0105,0.0098,0.0099,0.0103,0.0106,0.0113,0.0097,0.01,0.0102,0.0073,0.0073,0.0073,0,0,0.0172,0.017,0.0177,0.0176,0.0172,0.0166,0.0168,0.0157,0.0156,0.016,0.0145,0.0139,0.0133,0.0126,0.0122,0.0137,0.0115,0.0135,0.016,0.0146,0.0148,0.015,0.0123,0.0122,0.0136,0.0136,0.0136,0,0.0178,0.0187,0.0179,0.0186,0.0191,0.0175,0.0186,0.0184,0.0175,0.0179,0.0168,0.016,0.0145,0.0152,0.0155,0.0145,0.0129,0.0149,0.015,0.0151,0.0152,0.0125,0.0123,0.0138,0.0138,0.0138,0.0137,0,0.0195,0.0205,0.021,0.0217,0.0221,0.0227,0.0225,0.0228,0.0225,0.022,0.0225,0.0203,0.0198,0.019,0.0178,0.0181,0.0164,0.0155,0.0142,0.0157,0.0127,0.0125,0.014,0.014,0.0139,0.0139,0,0,0.0203,0.0219,0.0223,0.0237,0.024,0.0248,0.0262,0.0271,0.0288,0.0273,0.0289,0.0272,0.0255,0.025,0.0229,0.0215,0.02,0.0192,0.019,0.0167,0.0159,0.0142,0.0137,0.0191,0.0191,0.0192,0.0131,0,0.022,0.0246,0.025,0.0281,0.0294,0.0294,0.0314,0.0321,0.0322,0.0333,0.031,0.0318,0.028,0.0281,0.0259,0.022,0.0198,0.0216,0.0147,0.0145,0.0129,0.0136,0.0192,0.0129,0.0129,0.0128,0.0128,0,0.0235,0.0253,0.0286,0.0321,0.0329,0.0348,0.0381,0.0398,0.0405,0.0407,0.0399,0.038,0.0358,0.0327,0.026,0.0275,0.0221,0.0185,0.0181,0.0155,0.0124,0.0113,0.0124,0.0124,0.0125,0.0125,0.0125,0,0.0247,0.028,0.0312,0.0322,0.0357,0.038,0.0402,0.0421,0.0451,0.0457,0.0474,0.0435,0.0425,0.0359,0.0272,0.027,0.0194,0.0179,0.011,0.0107,0.0125,0.0124,0.0132,0.0133,0.0133,0.0133,0.0133,0,0.0261,0.0288,0.0324,0.0344,0.0396,0.041,0.0467,0.048,0.0512,0.0553,0.0516,0.0527,0.0435,0.0377,0.0291,0.0191,0.0202,0.0117,0.0095,0.0139,0.014,0.0123,0.0122,0.0131,0.0131,0.0131,0.0132,0,0.0267,0.0288,0.0331,0.0379,0.0404,0.0442,0.0518,0.0559,0.0579,0.0631,0.0639,0.0599,0.0522,0.0415,0.0302,0.0221,0.0126,0.0086,0.0135,0.0115,0.0042,0.0044,0.0009,0.0008,0.0007,0.0006,0.0005,0,0.027,0.0293,0.036,0.04,0.0428,0.0492,0.0546,0.059,0.0637,0.0674,0.07,0.0643,0.0598,0.0422,0.0301,0.013,0.0103,0.0046,0.005,0.005,0.0032,0.0035,0.0038,0.0004,0.0004,0.0004,0.0003,0,0.028,0.0306,0.0347,0.0427,0.049,0.0567,0.0642,0.068,0.0736,0.0753,0.0751,0.0665,0.0571,0.0424,0.0286,0.0165,0.0082,0.0037,0.0038,0.0041,0.0044,0.0028,0.0032,0.0,0.0001,0.0001,0.0001,0,0.0293,0.0322,0.0382,0.0455,0.0536,0.0621,0.066,0.0718,0.0764,0.0796,0.0788,0.0691,0.0631,0.0441,0.0319,0.0193,0.016,0.0116,0.0112,0.0114,0.0158,0.0179,0.0162,0,0,0,0,0,0.0306,0.0345,0.0409,0.0494,0.0574,0.0628,0.0721,0.0755,0.0802,0.0805,0.0801,0.0713,0.0536,0.0458,0.0329,0.0294,0.0133,0.0138,0.0078,-0.0016,-0.0013,0.002,0,0,0,0,0,0,0.0316,0.0374,0.0407,0.0515,0.0576,0.0675,0.0737,0.0771,0.0774,0.0791,0.0697,0.0665,0.0488,0.0602,0.0319,0.0283,0.0224,0.0059,0.0055,-0.0018,-0.0015,-0.0012,0.0023,0,0,0,0,0]}]]